DAL1268 KATL-KMKE

Flight info

Callsign DAL1268
Flight time 1h 31m
Altitude 36000
Route VARNM2 RESPE IIU J89 MACES VINNE BRAVE EXARR
Aircraft B738/M-SDE2E3FGHIRWXY/LB1

Departure

Time 2026-04-17 05:41
Airport Hartsfield Jackson Atlanta International Airport (KATL)

Arrival

Time 2026-04-17 07:12
Airport General Mitchell International Airport (KMKE)
Time Latitude Longitude Altitude Speed Heading
2026-04-17 05:18 33.64298 -84.43521 1005 ft 0 kts 269°
2026-04-17 05:27 33.64298 -84.43526 949 ft 0 kts 269°
2026-04-17 05:31 33.64298 -84.43504 1005 ft 4 kts 282°
2026-04-17 05:31 33.64288 -84.43475 1005 ft 4 kts 313°
2026-04-17 05:31 33.64267 -84.43459 1005 ft 4 kts 353°
2026-04-17 05:31 33.64260 -84.43458 1005 ft 0 kts
2026-04-17 05:34 33.64277 -84.43458 1005 ft 7 kts 359°
2026-04-17 05:34 33.64329 -84.43458 1005 ft 8 kts 360°
2026-04-17 05:35 33.64366 -84.43458 1005 ft 4 kts 360°
2026-04-17 05:35 33.64392 -84.43459 1005 ft 4 kts 360°
2026-04-17 05:35 33.64438 -84.43441 1005 ft 11 kts 37°
2026-04-17 05:35 33.64460 -84.43321 1006 ft 19 kts 90°
2026-04-17 05:36 33.64459 -84.43149 1006 ft 21 kts 90°
2026-04-17 05:36 33.64459 -84.42978 1005 ft 20 kts 90°
2026-04-17 05:36 33.64460 -84.42812 1005 ft 20 kts 89°
2026-04-17 05:36 33.64468 -84.42652 1005 ft 19 kts 89°
2026-04-17 05:37 33.64469 -84.42497 1005 ft 18 kts 90°
2026-04-17 05:37 33.64469 -84.42347 1005 ft 18 kts 90°
2026-04-17 05:37 33.64496 -84.42209 1005 ft 17 kts 60°
2026-04-17 05:37 33.64541 -84.42078 1005 ft 19 kts 86°
2026-04-17 05:38 33.64542 -84.41895 1005 ft 22 kts 90°
2026-04-17 05:38 33.64543 -84.41712 1006 ft 22 kts 89°
2026-04-17 05:38 33.64542 -84.41529 1006 ft 22 kts 90°
2026-04-17 05:38 33.64542 -84.41352 1006 ft 21 kts 90°
2026-04-17 05:39 33.64543 -84.41180 1006 ft 20 kts 89°
2026-04-17 05:39 33.64543 -84.41013 1005 ft 20 kts 90°
2026-04-17 05:39 33.64544 -84.40852 1005 ft 19 kts 83°
2026-04-17 05:39 33.64569 -84.40700 1005 ft 18 kts 88°
2026-04-17 05:40 33.64584 -84.40588 1004 ft 12 kts 49°
2026-04-17 05:40 33.64659 -84.40580 1003 ft 11 kts 333°
2026-04-17 05:40 33.64679 -84.40664 1003 ft 11 kts 269°
2026-04-17 05:40 33.64680 -84.40963 1006 ft 71 kts 270°
2026-04-17 05:41 33.64680 -84.41819 1006 ft 135 kts 270°
2026-04-17 05:41 33.64684 -84.43116 1313 ft 163 kts 269°
2026-04-17 05:41 33.64678 -84.44500 2109 ft 164 kts 270°
2026-04-17 05:41 33.64698 -84.45912 2714 ft 184 kts 279°
2026-04-17 05:42 33.65186 -84.47432 3038 ft 205 kts 296°
2026-04-17 05:42 33.65809 -84.49010 3590 ft 212 kts 294°
2026-04-17 05:42 33.66426 -84.50633 4275 ft 216 kts 294°
2026-04-17 05:42 33.67062 -84.52304 4892 ft 230 kts 295°
2026-04-17 05:43 33.67765 -84.54151 5233 ft 253 kts 295°
2026-04-17 05:43 33.68508 -84.56105 5943 ft 261 kts 295°
2026-04-17 05:43 33.69483 -84.57945 6714 ft 266 kts 319°
2026-04-17 05:43 33.71156 -84.58839 7528 ft 270 kts 353°
2026-04-17 05:44 33.73061 -84.58692 8278 ft 278 kts
2026-04-17 05:44 33.75010 -84.58541 9003 ft 283 kts
2026-04-17 05:44 33.76992 -84.58400 9786 ft 287 kts
2026-04-17 05:44 33.79002 -84.58244 10497 ft 292 kts
2026-04-17 05:45 33.81065 -84.58080 10950 ft 308 kts 359°
2026-04-17 05:45 33.83258 -84.58030 11117 ft 330 kts 355°
2026-04-17 05:45 33.85605 -84.58082 11487 ft 343 kts 354°
2026-04-17 05:45 33.88013 -84.58168 12083 ft 349 kts 354°
2026-04-17 05:46 33.90448 -84.58257 12815 ft 352 kts 353°
2026-04-17 05:46 33.92926 -84.58345 13373 ft 360 kts 353°
2026-04-17 05:46 33.95448 -84.58430 14030 ft 366 kts 353°
2026-04-17 05:46 33.98006 -84.58510 14627 ft 369 kts 353°
2026-04-17 05:47 34.00583 -84.58586 15281 ft 371 kts 353°
2026-04-17 05:47 34.03173 -84.58665 15934 ft 373 kts 353°
2026-04-17 05:47 34.05784 -84.58744 16565 ft 376 kts 353°
2026-04-17 05:47 34.08409 -84.58824 17193 ft 379 kts 353°
2026-04-17 05:48 34.11054 -84.58903 17821 ft 382 kts 352°
2026-04-17 05:48 34.13736 -84.58985 18383 ft 387 kts 352°
2026-04-17 05:48 34.16436 -84.59066 18909 ft 389 kts 352°
2026-04-17 05:48 34.19117 -84.59146 19446 ft 391 kts 352°
2026-04-17 05:49 34.21847 -84.59228 19992 ft 393 kts 351°
2026-04-17 05:49 34.24586 -84.59310 20542 ft 395 kts 351°
2026-04-17 05:49 34.27355 -84.59395 21076 ft 398 kts 351°
2026-04-17 05:49 34.30107 -84.59638 21585 ft 394 kts 344°
2026-04-17 05:50 34.32804 -84.60213 22107 ft 392 kts 340°
2026-04-17 05:50 34.35467 -84.60911 22660 ft 392 kts 339°
2026-04-17 05:50 34.38134 -84.61644 23203 ft 394 kts 339°
2026-04-17 05:50 34.40820 -84.62374 23684 ft 396 kts 339°
2026-04-17 05:51 34.43486 -84.63080 24124 ft 397 kts 339°
2026-04-17 05:51 34.46194 -84.63777 24531 ft 400 kts 340°
2026-04-17 05:51 34.48934 -84.64470 24868 ft 404 kts 340°
2026-04-17 05:51 34.51694 -84.65160 25253 ft 407 kts 340°
2026-04-17 05:52 34.54477 -84.65848 25653 ft 408 kts 340°
2026-04-17 05:52 34.57259 -84.66534 26075 ft 409 kts 339°
2026-04-17 05:52 34.60055 -84.67223 26450 ft 410 kts 339°
2026-04-17 05:52 34.62851 -84.67911 27028 ft 409 kts 339°
2026-04-17 05:53 34.65627 -84.68591 27609 ft 406 kts 339°
2026-04-17 05:53 34.68388 -84.69271 28134 ft 404 kts 338°
2026-04-17 05:53 34.71133 -84.69950 28672 ft 401 kts 338°
2026-04-17 05:53 34.73871 -84.70628 28908 ft 407 kts 338°
2026-04-17 05:54 34.76673 -84.71332 29029 ft 414 kts 338°
2026-04-17 05:54 34.79504 -84.72038 29453 ft 415 kts 338°
2026-04-17 05:54 34.82323 -84.72734 30062 ft 411 kts 338°
2026-04-17 05:54 34.85107 -84.73418 30589 ft 406 kts 338°
2026-04-17 05:55 34.87871 -84.74101 31048 ft 405 kts 338°
2026-04-17 05:55 34.90620 -84.74782 31511 ft 401 kts 338°
2026-04-17 05:55 34.93339 -84.75456 31967 ft 397 kts 337°
2026-04-17 05:55 34.96047 -84.76131 32334 ft 396 kts 337°
2026-04-17 05:56 34.98719 -84.76799 32654 ft 396 kts 337°
2026-04-17 05:56 35.01412 -84.77473 33026 ft 394 kts 337°
2026-04-17 05:56 35.04096 -84.78142 33440 ft 391 kts 337°
2026-04-17 05:56 35.06761 -84.78807 33798 ft 390 kts 337°
2026-04-17 05:57 35.09416 -84.79472 34118 ft 389 kts 337°
2026-04-17 05:57 35.12063 -84.80134 34411 ft 388 kts 337°
2026-04-17 05:57 35.14706 -84.80796 34706 ft 387 kts 337°
2026-04-17 05:57 35.17348 -84.81459 34926 ft 388 kts 337°
2026-04-17 05:58 35.19988 -84.82121 35201 ft 387 kts 337°
2026-04-17 05:58 35.22622 -84.82780 35486 ft 385 kts 337°
2026-04-17 05:58 35.25253 -84.83440 35720 ft 385 kts 337°
2026-04-17 05:59 35.30479 -84.84755 36110 ft 386 kts 337°
2026-04-17 05:59 35.35802 -84.86100 36124 ft 394 kts 338°
2026-04-17 06:00 35.41230 -84.87471 36161 ft 403 kts 338°
2026-04-17 06:00 35.46794 -84.88873 36128 ft 412 kts 338°
2026-04-17 06:01 35.52479 -84.90304 36178 ft 419 kts 339°
2026-04-17 06:01 35.58243 -84.91760 36110 ft 425 kts 339°
2026-04-17 06:02 35.64063 -84.93234 36094 ft 428 kts 339°
2026-04-17 06:02 35.69880 -84.94709 36103 ft 431 kts 339°
2026-04-17 06:03 35.75719 -84.96186 36088 ft 424 kts 339°
2026-04-17 06:03 35.81458 -84.97639 36092 ft 419 kts 339°
2026-04-17 06:04 35.87183 -84.99100 36126 ft 419 kts 339°
2026-04-17 06:04 35.92890 -85.00559 36136 ft 419 kts 339°
2026-04-17 06:05 35.98569 -85.02012 36142 ft 419 kts 339°
2026-04-17 06:05 36.04287 -85.03476 36138 ft 420 kts 339°
2026-04-17 06:06 36.10017 -85.04946 36136 ft 420 kts 339°
2026-04-17 06:06 36.15750 -85.06419 36149 ft 421 kts 340°
2026-04-17 06:07 36.21503 -85.07896 36115 ft 422 kts 340°
2026-04-17 06:07 36.27251 -85.09374 36103 ft 422 kts 340°
2026-04-17 06:08 36.33015 -85.10860 36085 ft 423 kts 340°
2026-04-17 06:08 36.38757 -85.12342 36079 ft 424 kts 340°
2026-04-17 06:09 36.44530 -85.13835 36099 ft 423 kts 340°
2026-04-17 06:09 36.50309 -85.15330 36092 ft 424 kts 340°
2026-04-17 06:10 36.56098 -85.16832 36082 ft 425 kts 340°
2026-04-17 06:10 36.61892 -85.18337 36079 ft 426 kts 340°
2026-04-17 06:11 36.67700 -85.19849 36096 ft 427 kts 341°
2026-04-17 06:11 36.73487 -85.21357 36095 ft 428 kts 341°
2026-04-17 06:12 36.79314 -85.22877 36085 ft 428 kts 341°
2026-04-17 06:12 36.85149 -85.24401 36080 ft 428 kts 341°
2026-04-17 06:13 36.90979 -85.25927 36115 ft 428 kts 341°
2026-04-17 06:13 36.96812 -85.27457 36076 ft 428 kts 341°
2026-04-17 06:14 37.02637 -85.28986 36071 ft 428 kts 341°
2026-04-17 06:14 37.08462 -85.30517 36071 ft 427 kts 341°
2026-04-17 06:15 37.14240 -85.32039 36063 ft 427 kts 341°
2026-04-17 06:15 37.20050 -85.33573 36077 ft 427 kts 341°
2026-04-17 06:16 37.25865 -85.35109 36064 ft 426 kts 341°
2026-04-17 06:16 37.31671 -85.36646 36062 ft 426 kts 341°
2026-04-17 06:17 37.36494 -85.37924 36051 ft 426 kts 341°
2026-04-17 06:17 37.42301 -85.39464 36058 ft 426 kts 342°
2026-04-17 06:18 37.48116 -85.41010 36056 ft 426 kts 342°
2026-04-17 06:18 37.53917 -85.42556 36052 ft 426 kts 342°
2026-04-17 06:19 37.59650 -85.44084 36052 ft 422 kts 342°
2026-04-17 06:19 37.65375 -85.45611 36068 ft 419 kts 342°
2026-04-17 06:20 37.71067 -85.47135 36063 ft 417 kts 342°
2026-04-17 06:20 37.76734 -85.48654 36064 ft 416 kts 342°
2026-04-17 06:21 37.82384 -85.50171 36070 ft 415 kts 342°
2026-04-17 06:21 37.88043 -85.51693 36103 ft 416 kts 343°
2026-04-17 06:22 37.93723 -85.53224 36076 ft 418 kts 343°
2026-04-17 06:22 37.99433 -85.54763 36055 ft 420 kts 343°
2026-04-17 06:23 38.05138 -85.56304 36056 ft 422 kts 343°
2026-04-17 06:23 38.10866 -85.58030 36069 ft 421 kts 336°
2026-04-17 06:24 38.16187 -85.61055 36064 ft 419 kts 331°
2026-04-17 06:24 38.21475 -85.64222 36066 ft 421 kts 332°
2026-04-17 06:25 38.26749 -85.67354 36063 ft 421 kts 332°
2026-04-17 06:25 38.32068 -85.70495 36044 ft 421 kts 332°
2026-04-17 06:26 38.37383 -85.73632 36056 ft 421 kts 332°
2026-04-17 06:26 38.42690 -85.76769 36054 ft 419 kts 332°
2026-04-17 06:27 38.47987 -85.79905 36051 ft 418 kts 332°
2026-04-17 06:27 38.53255 -85.83030 36046 ft 417 kts 332°
2026-04-17 06:28 38.58513 -85.86154 36061 ft 416 kts 332°
2026-04-17 06:28 38.63725 -85.89256 36038 ft 416 kts 332°
2026-04-17 06:29 38.68968 -85.92381 36027 ft 416 kts 332°
2026-04-17 06:29 38.74216 -85.95515 36034 ft 416 kts 332°
2026-04-17 06:30 38.79457 -85.98649 36018 ft 416 kts 332°
2026-04-17 06:30 38.84699 -86.01789 36024 ft 416 kts 332°
2026-04-17 06:31 38.89948 -86.04939 36017 ft 417 kts 333°
2026-04-17 06:31 38.95202 -86.08096 36021 ft 417 kts 332°
2026-04-17 06:32 39.00466 -86.11262 36013 ft 418 kts 333°
2026-04-17 06:32 39.05741 -86.14434 36016 ft 418 kts 333°
2026-04-17 06:33 39.11022 -86.17615 36015 ft 419 kts 333°
2026-04-17 06:33 39.16307 -86.20805 36018 ft 419 kts 333°
2026-04-17 06:34 39.21585 -86.23995 36016 ft 419 kts 333°
2026-04-17 06:34 39.26819 -86.27166 36031 ft 418 kts 333°
2026-04-17 06:35 39.32085 -86.30360 36022 ft 418 kts 333°
2026-04-17 06:35 39.37342 -86.33555 36021 ft 417 kts 333°
2026-04-17 06:36 39.42591 -86.36750 36020 ft 416 kts 333°
2026-04-17 06:36 39.47837 -86.39948 36017 ft 416 kts 333°
2026-04-17 06:37 39.53072 -86.43146 36043 ft 416 kts 333°
2026-04-17 06:37 39.58310 -86.46350 36030 ft 416 kts 333°
2026-04-17 06:38 39.63520 -86.49543 36034 ft 416 kts 333°
2026-04-17 06:38 39.68760 -86.52760 36033 ft 417 kts 333°
2026-04-17 06:39 39.74004 -86.55984 36027 ft 417 kts 333°
2026-04-17 06:39 39.79250 -86.59213 36028 ft 418 kts 332°
2026-04-17 06:40 39.84512 -86.62461 36025 ft 418 kts 332°
2026-04-17 06:40 39.89740 -86.65694 36035 ft 418 kts 332°
2026-04-17 06:41 39.95003 -86.68951 36033 ft 419 kts 332°
2026-04-17 06:41 40.00274 -86.72196 36046 ft 420 kts 334°
2026-04-17 06:42 40.05831 -86.74640 36041 ft 423 kts 340°
2026-04-17 06:42 40.11473 -86.76817 36021 ft 423 kts 340°
2026-04-17 06:43 40.17109 -86.79023 36016 ft 423 kts 340°
2026-04-17 06:43 40.22732 -86.81270 36032 ft 422 kts 339°
2026-04-17 06:44 40.28354 -86.83537 36025 ft 423 kts 339°
2026-04-17 06:44 40.33976 -86.85811 36029 ft 423 kts 339°
2026-04-17 06:45 40.39601 -86.88090 36026 ft 423 kts 339°
2026-04-17 06:45 40.45181 -86.90354 36033 ft 423 kts 339°
2026-04-17 06:46 40.50813 -86.92644 36031 ft 423 kts 339°
2026-04-17 06:46 40.56444 -86.94935 36022 ft 424 kts 339°
2026-04-17 06:47 40.62083 -86.97234 36017 ft 424 kts 339°
2026-04-17 06:47 40.67724 -86.99540 36014 ft 424 kts 339°
2026-04-17 06:48 40.73362 -87.01848 36008 ft 424 kts 339°
2026-04-17 06:48 40.78962 -87.04144 36031 ft 424 kts 339°
2026-04-17 06:49 40.84643 -87.06478 36039 ft 425 kts 339°
2026-04-17 06:49 40.90289 -87.08801 36053 ft 425 kts 338°
2026-04-17 06:50 40.95908 -87.11118 36051 ft 426 kts 338°
2026-04-17 06:50 41.01568 -87.13455 35993 ft 428 kts 338°
2026-04-17 06:50 41.04439 -87.14635 35505 ft 433 kts 339°
2026-04-17 06:51 41.07304 -87.15860 35002 ft 432 kts 337°
2026-04-17 06:51 41.10151 -87.17147 34473 ft 430 kts 336°
2026-04-17 06:51 41.12974 -87.18448 33945 ft 429 kts 336°
2026-04-17 06:51 41.15791 -87.19749 33337 ft 430 kts 336°
2026-04-17 06:52 41.18623 -87.21053 32768 ft 431 kts 337°
2026-04-17 06:52 41.21469 -87.22356 32218 ft 432 kts 337°
2026-04-17 06:52 41.24307 -87.23649 31717 ft 431 kts 337°
2026-04-17 06:52 41.27146 -87.24939 31223 ft 431 kts 337°
2026-04-17 06:53 41.29985 -87.26227 30741 ft 433 kts 338°
2026-04-17 06:53 41.32851 -87.27530 30280 ft 439 kts 338°
2026-04-17 06:53 41.35759 -87.28853 29762 ft 443 kts 338°
2026-04-17 06:53 41.38684 -87.30183 29206 ft 445 kts 338°
2026-04-17 06:54 41.41611 -87.31515 28668 ft 446 kts 338°
2026-04-17 06:54 41.44555 -87.32855 28134 ft 447 kts 338°
2026-04-17 06:54 41.47503 -87.34198 27611 ft 448 kts 338°
2026-04-17 06:54 41.50458 -87.35547 27111 ft 449 kts 338°
2026-04-17 06:55 41.53380 -87.36883 26639 ft 451 kts 338°
2026-04-17 06:55 41.56355 -87.38243 26133 ft 453 kts 338°
2026-04-17 06:55 41.59352 -87.39616 25647 ft 455 kts 338°
2026-04-17 06:55 41.62352 -87.40991 25156 ft 457 kts 338°
2026-04-17 06:56 41.65365 -87.42374 24697 ft 458 kts 338°
2026-04-17 06:56 41.68382 -87.43759 24232 ft 457 kts 338°
2026-04-17 06:56 41.71371 -87.45131 23767 ft 451 kts 338°
2026-04-17 06:56 41.74316 -87.46484 23253 ft 445 kts 338°
2026-04-17 06:57 41.77236 -87.47827 22735 ft 441 kts 338°
2026-04-17 06:57 41.80120 -87.49156 22209 ft 437 kts 338°
2026-04-17 06:57 41.82982 -87.50477 21672 ft 433 kts 338°
2026-04-17 06:57 41.85817 -87.51788 21185 ft 430 kts 338°
2026-04-17 06:58 41.88633 -87.53095 20685 ft 427 kts 338°
2026-04-17 06:58 41.91436 -87.54392 20189 ft 424 kts 339°
2026-04-17 06:58 41.94214 -87.55678 19710 ft 421 kts 339°
2026-04-17 06:58 41.96986 -87.56962 19200 ft 420 kts 339°
2026-04-17 06:59 41.99737 -87.58238 18691 ft 418 kts 339°
2026-04-17 06:59 42.02452 -87.59499 18169 ft 415 kts 339°
2026-04-17 06:59 42.05175 -87.60765 17593 ft 413 kts 339°
2026-04-17 06:59 42.07878 -87.62022 17022 ft 409 kts 339°
2026-04-17 07:00 42.10557 -87.63270 16458 ft 406 kts 339°
2026-04-17 07:00 42.13211 -87.64506 15917 ft 402 kts 339°
2026-04-17 07:00 42.15848 -87.65737 15374 ft 399 kts 339°
2026-04-17 07:00 42.18460 -87.66957 14875 ft 395 kts 339°
2026-04-17 07:01 42.21043 -87.68164 14421 ft 391 kts 339°
2026-04-17 07:01 42.23606 -87.69363 13979 ft 388 kts 339°
2026-04-17 07:01 42.26152 -87.70556 13499 ft 385 kts 339°
2026-04-17 07:01 42.28675 -87.71739 13002 ft 383 kts 339°
2026-04-17 07:02 42.31158 -87.72904 12527 ft 380 kts 339°
2026-04-17 07:02 42.33621 -87.74059 12137 ft 366 kts 339°
2026-04-17 07:02 42.35969 -87.75159 11748 ft 349 kts 339°
2026-04-17 07:02 42.38212 -87.76212 11364 ft 334 kts 339°
2026-04-17 07:03 42.40362 -87.77223 11014 ft 320 kts 339°
2026-04-17 07:03 42.42431 -87.78197 10580 ft 311 kts 339°
2026-04-17 07:03 42.44461 -87.79154 10095 ft 306 kts 339°
2026-04-17 07:03 42.46447 -87.80091 9687 ft 298 kts 339°
2026-04-17 07:04 42.48385 -87.81006 9241 ft 291 kts 339°
2026-04-17 07:04 42.50281 -87.81902 8795 ft 286 kts 339°
2026-04-17 07:04 42.52143 -87.82781 8371 ft 281 kts 339°
2026-04-17 07:04 42.53974 -87.83647 7955 ft 277 kts 338°
2026-04-17 07:05 42.55172 -87.84214 7684 ft 273 kts 338°
2026-04-17 07:05 42.56938 -87.85049 7302 ft 263 kts 338°
2026-04-17 07:05 42.58632 -87.85850 6908 ft 252 kts 338°
2026-04-17 07:05 42.60767 -87.86861 6417 ft 238 kts 338°
2026-04-17 07:06 42.61811 -87.87356 6150 ft 232 kts 338°
2026-04-17 07:06 42.63317 -87.88071 5780 ft 227 kts 338°
2026-04-17 07:06 42.64796 -87.88774 5429 ft 223 kts 338°
2026-04-17 07:06 42.66227 -87.89455 5138 ft 218 kts 338°
2026-04-17 07:07 42.67652 -87.90132 4810 ft 215 kts 338°
2026-04-17 07:07 42.69058 -87.90800 4480 ft 213 kts 338°
2026-04-17 07:07 42.70457 -87.91466 4168 ft 212 kts 338°
2026-04-17 07:07 42.71842 -87.92125 3841 ft 211 kts 338°
2026-04-17 07:08 42.73236 -87.92785 3517 ft 212 kts 339°
2026-04-17 07:08 42.74706 -87.92932 3186 ft 217 kts
2026-04-17 07:08 42.76194 -87.92577 3068 ft 218 kts
2026-04-17 07:08 42.77702 -87.92348 3027 ft 216 kts
2026-04-17 07:09 42.79161 -87.92126 3018 ft 205 kts
2026-04-17 07:09 42.80562 -87.91904 3021 ft 203 kts
2026-04-17 07:09 42.81980 -87.91665 2922 ft 209 kts
2026-04-17 07:09 42.83424 -87.91417 2668 ft 208 kts
2026-04-17 07:10 42.84837 -87.91174 2390 ft 199 kts
2026-04-17 07:10 42.86162 -87.90946 2167 ft 183 kts
2026-04-17 07:10 42.87367 -87.90739 1908 ft 169 kts
2026-04-17 07:10 42.88492 -87.90547 1700 ft 160 kts
2026-04-17 07:11 42.89586 -87.90357 1461 ft 155 kts
2026-04-17 07:11 42.90640 -87.90179 1255 ft 150 kts
2026-04-17 07:11 42.91658 -87.90003 1052 ft 149 kts
2026-04-17 07:11 42.92683 -87.89827 850 ft 148 kts
2026-04-17 07:12 42.93702 -87.89653 691 ft 144 kts
2026-04-17 07:12 42.94594 -87.89501 685 ft 109 kts
2026-04-17 07:12 42.95195 -87.89398 683 ft 65 kts
2026-04-17 07:12 42.95432 -87.89364 684 ft 12 kts 348°
2026-04-17 07:13 42.95450 -87.89439 683 ft 8 kts 256°
2026-04-17 07:13 42.95435 -87.89493 683 ft 4 kts 240°
2026-04-17 07:13 42.95417 -87.89519 684 ft 4 kts 217°
2026-04-17 07:13 42.95392 -87.89538 684 ft 5 kts 207°
2026-04-17 07:14 42.95337 -87.89579 683 ft 11 kts 205°
2026-04-17 07:14 42.95270 -87.89627 684 ft 11 kts 207°
2026-04-17 07:14 42.95204 -87.89672 687 ft 10 kts 207°
2026-04-17 07:14 42.95141 -87.89717 681 ft 10 kts 207°
2026-04-17 07:15 42.95080 -87.89759 684 ft 10 kts 204°
2026-04-17 07:15 42.95025 -87.89786 682 ft 7 kts 205°
2026-04-17 07:15 42.94988 -87.89825 682 ft 7 kts 216°
2026-04-17 07:15 42.94949 -87.89834 683 ft 5 kts 172°
2026-04-17 07:16 42.94921 -87.89838 684 ft 4 kts 204°
2026-04-17 07:16 42.94905 -87.89850 685 ft 0 kts 207°